Regional Weather Roundup
Issued by NWS Cleveland, OH

Home | Current Version | Previous Version | Text Only | Print | Product List | Glossary On
Versions: 1 2 3 4 5 6 7 8 9 10 11 12 13 14 15 16 17 18 19 20 21 22 23 24 25 26 27 28 29 30 31 32 33 34 35 36 37 38 39 40 41 42 43 44 45 46 47 48 49 50
000
ASUS41 KCLE 260010
RWRCLE
OHIO REGIONAL WEATHER ROUNDUP
NATIONAL WEATHER SERVICE WILMINGTON, OH
800 PM EDT SAT APR 25 2015

NOTE: "FAIR" INDICATES FEW OR NO CLOUDS BELOW 12,000 FEET WITH NO
SIGNIFICANT WEATHER AND/OR OBSTRUCTIONS TO VISIBILITY.

OHZ001>008-015>018-024>027-034-035-043-044-260100-
   NORTHWEST OHIO

CITY           SKY/WX    TMP DP  RH WIND       PRES   REMARKS
DEFIANCE       CLOUDY    44  29  55 E10       29.75S
FINDLAY        LGT RAIN  42  31  64 NE14      29.73F
TOLEDO EXPRESS CLOUDY    44  26  49 NE14      29.77F
TOLEDO EXEC    CLOUDY    44  24  45 NE12      29.79F
LIMA           CLOUDY    40  37  89 NE15      29.71F
$$

OHZ009>014-019>023-028>033-038-089-260100-
   NORTHEAST OHIO

CITY           SKY/WX    TMP DP  RH WIND       PRES   REMARKS
CLE-HOPKINS    CLOUDY    43  27  53 NE14      29.79F
CLE-LAKEFRONT  MOCLDY    44  32  62 NE14      29.76S
CUY CO. ARPT   CLOUDY    45  25  45 NE15      29.77S
LORAIN-ELYRIA  CLOUDY    40  26  57 NE12      29.77F
ASHTABULA      PTCLDY    43  22  43 NE9       29.77F
AKRON-CANTON   CLOUDY    50  23  34 NE5       29.72S
WOOSTER        CLOUDY    44  26  49 N9        29.73F
MANSFIELD      CLOUDY    42  32  67 N6        29.73F
YOUNGSTOWN     CLOUDY    48  27  44 N13       29.73R
$$

OHZ042-051>053-060>062-070>072-077>081-260100-
  SOUTHWEST OHIO

CITY           SKY/WX    TMP DP  RH WIND       PRES   REMARKS
CINC-COVINGTON CLOUDY    45  45 100 NE20G25   29.61F
CINC-LUNKEN    CLOUDY    46  43  89 NE13      29.65F
HAMILTON       CLOUDY    46  43  89 E13       29.66F
DAYTON         MOCLDY    45  40  82 E12       29.68S
WRIGHT-PAT AFB MOCLDY    45  40  84 NE13      29.67F
DAYTON GENERAL MOCLDY    44  40  85 E13G21    29.65S
WILMINGTON     CLOUDY    43  39  86 NE15G26   29.66R
$$

OHZ036-037-039>041-045>050-054>059-063>069-073>076-082>088-260100-
  CENTRAL AND SOUTHEAST OHIO

CITY           SKY/WX    TMP DP  RH WIND       PRES   REMARKS
COLUMBUS       CLOUDY    44  41  89 N6        29.72R
OSU AIRPORT    LGT RAIN  44  42  93 N8        29.72S
BOLTON FIELD   CLOUDY    44  41  90 NE12      29.70F
RICKENBACK AFB CLOUDY    44  40  88 NE10      29.70S
NEWARK         CLOUDY    45  40  82 N5        29.71R
MARION         LGT RAIN  41  35  79 NE12      29.73F
LANCASTER      CLOUDY    44  40  85 NE6       29.71R
ZANESVILLE     CLOUDY    43  39  86 NE8       29.69F
NEW PHILLY     LGT RAIN  49  36  61 E6        29.74S
$$



USA.gov is the U.S. government's official web portal to all federal, state and local government web resources and services.